Theta_e
344 352 363 363 361 359 357 355 352 353 354 355 353 354 354 356 355 354 355 355 356 355 354 354 354 353 352 352 352 351 349 348 347 347 348 347 347 346 346 344 344 340 344
347 354 361 364 362 358 356 354 353 352 354 354 352 354 354 355 354 355 355 355 355 355 354 354 354 353 353 352 351 349 349 349 348 347 346 345 347 344 346 344 343 341 344
349 354 358 364 362 357 355 353 352 352 353 353 352 353 354 354 355 355 355 355 355 355 354 353 352 351 350 349 349 349 349 348 347 346 345 338 337 343 344 345 345 344 344
351 353 356 363 361 359 356 354 352 352 352 353 352 354 354 354 355 355 355 355 355 354 352 350 349 348 348 348 349 349 349 349 350 351 347 342 340 344 344 345 344 343 344
349 351 355 360 356 357 356 353 352 352 352 353 352 354 354 354 355 356 355 355 353 351 349 348 346 346 346 346 347 348 349 350 351 347 339 341 343 344 346 345 344 343 341
343 345 358 359 358 356 354 352 352 352 353 353 352 354 353 354 354 354 354 353 352 350 348 347 346 345 346 347 348 348 349 350 351 342 341 342 343 347 348 347 345 344 342
340 345 353 358 355 355 353 353 352 352 353 353 352 353 354 354 354 354 353 352 351 350 349 348 347 348 349 350 350 352 351 351 345 342 343 344 341 349 350 349 348 344 342
344 346 350 355 356 356 354 353 352 354 354 353 353 353 353 353 353 353 352 352 351 350 349 349 351 352 352 352 352 353 353 351 348 343 343 343 341 348 351 351 349 345 344
345 346 346 348 350 354 354 353 353 354 354 355 354 354 354 354 353 353 353 352 352 353 352 353 353 353 352 352 353 353 353 352 346 343 344 344 349 348 352 351 349 346 345
342 343 341 344 345 346 346 352 353 352 354 354 353 353 353 353 353 353 354 354 352 353 354 354 354 353 353 352 353 353 354 354 348 345 342 342 351 352 352 353 351 348 347
337 335 339 340 340 342 343 347 352 353 353 353 353 353 353 347 346 349 352 352 352 354 355 355 354 353 353 353 353 354 354 349 348 346 342 347 350 353 353 355 353 352 350
332 336 338 338 339 340 347 343 343 345 345 345 346 346 345 343 342 347 350 352 353 354 355 355 355 355 354 346 343 347 343 344 346 346 344 350 353 356 355 355 352 351 352
332 336 338 339 341 341 342 340 341 341 342 343 344 343 342 343 340 342 341 341 343 349 346 347 344 344 341 340 339 340 342 342 344 345 347 355 354 356 356 354 353 352 352
331 333 337 339 340 340 337 341 343 342 340 342 341 341 339 338 336 336 337 339 337 340 340 342 340 338 334 337 339 341 344 342 342 341 344 356 354 353 356 353 352 352 350
331 331 334 336 338 338 335 340 340 341 342 342 340 340 339 336 334 335 335 336 337 338 339 338 336 335 335 340 344 344 343 343 341 342 343 356 354 355 354 353 351 349 347
333 332 335 334 334 335 335 337 338 339 340 340 339 340 340 338 335 332 333 334 335 337 338 336 335 336 339 342 344 345 344 343 342 335 344 348 354 352 353 353 351 346 345
335 335 334 333 333 332 333 336 335 336 338 337 338 337 338 338 337 338 336 335 335 335 336 336 335 341 342 341 339 339 340 342 346 345 344 346 347 353 352 351 348 346 348
334 333 334 336 333 332 333 336 334 333 336 336 336 337 338 340 339 337 338 335 337 338 339 342 341 340 339 337 335 334 333 332 342 342 344 341 342 339 349 349 349 352 349
331 333 332 333 333 332 331 334 333 331 334 335 336 337 338 341 342 339 339 337 338 340 342 343 341 339 337 337 337 329 322 323 331 335 330 328 326 326 340 347 349 349 348
325 329 332 332 332 332 332 333 333 331 333 334 335 337 338 340 342 339 339 338 338 341 342 340 339 339 336 334 328 323 323 326 328 324 321 323 329 333 335 336 338 342 346
320 323 328 333 334 334 334 332 333 333 332 333 334 336 339 340 341 339 339 339 340 341 341 341 338 337 334 329 320 319 318 319 320 317 315 316 321 329 330 328 331 335 335
319 320 322 324 330 337 334 335 335 335 334 335 334 336 340 341 340 340 338 338 342 341 341 340 336 332 330 325 315 313 311 314 313 314 312 313 311 314 319 328 328 330 324
309 311 313 320 324 326 332 339 337 334 333 331 330 333 336 342 341 340 341 340 340 343 342 339 336 331 327 323 317 313 309 307 308 312 309 308 307 306 307 311 318 329 320
305 307 308 310 312 322 328 331 330 329 327 325 328 330 333 340 344 342 342 343 341 344 342 340 336 328 321 320 316 315 310 311 308 303 307 306 305 305 307 314 321 325 320
303 303 304 305 309 309 312 321 323 328 331 331 331 331 333 334 339 344 343 343 344 344 344 339 332 324 320 318 313 310 306 305 307 305 301 302 302 302 307 313 319 316 317
296 297 298 298 302 304 306 308 313 318 323 326 330 333 333 334 333 339 346 345 345 345 344 339 334 326 321 316 311 309 306 305 303 301 299 298 297 299 303 308 308 308 309
Wind_Speed
7 7 16 17 16 16 16 14 14 14 14 15 17 17 18 16 16 17 16 15 13 14 14 14 14 14 14 13 12 11 11 10 10 9 8 8 6 8 9 11 11 6 10
14 10 18 17 17 17 16 14 14 14 14 15 16 17 16 16 16 15 15 13 13 12 12 12 12 11 11 10 10 9 7 7 7 6 7 6 7 6 8 9 10 7 9
14 9 14 16 17 17 15 14 13 14 14 14 15 15 15 15 14 13 13 11 11 10 10 9 9 8 8 8 6 5 4 4 3 3 3 3 1 4 6 8 9 10 9
13 6 8 18 17 17 16 15 13 13 14 14 15 15 14 14 13 13 11 10 9 8 7 6 5 5 5 5 4 3 2 1 1 3 3 4 4 5 5 5 6 8 9
14 6 9 16 17 16 15 15 14 13 14 14 14 14 13 12 12 11 10 9 7 5 4 3 2 2 2 1 2 2 3 3 4 2 2 4 5 6 8 8 6 6 7
8 5 13 15 15 15 15 14 14 14 14 14 14 14 13 11 10 9 9 7 6 4 3 3 2 2 3 3 3 2 3 4 5 3 3 4 6 10 12 10 9 8 8
7 5 9 15 16 16 15 14 14 14 14 13 13 13 13 11 10 8 8 6 5 5 6 5 4 5 6 6 5 4 4 5 3 3 2 3 6 13 14 12 11 10 9
10 7 8 15 14 14 15 15 14 13 13 13 13 12 11 10 9 8 7 7 7 7 8 8 7 7 8 8 7 6 6 7 5 5 3 3 9 10 12 12 9 10 10
7 8 6 7 13 15 14 14 15 14 13 12 11 10 11 10 9 8 8 8 9 8 9 9 9 9 10 9 9 7 7 10 6 3 4 2 10 12 12 10 10 10 9
6 6 6 6 5 6 7 15 15 15 13 12 12 11 10 10 9 9 8 8 10 10 10 10 12 12 11 10 8 11 10 14 6 4 4 4 8 12 10 11 11 11 11
3 2 5 6 5 5 5 8 13 15 14 12 11 11 7 3 5 7 8 9 11 11 10 11 13 13 13 13 10 9 10 4 5 3 3 7 6 8 11 9 9 11 10
7 7 6 6 6 6 6 5 5 5 4 4 4 4 3 4 4 6 8 10 13 14 13 13 13 13 12 5 5 9 2 4 3 4 2 7 8 9 9 6 5 6 7
13 9 11 11 9 9 6 4 3 2 3 3 5 5 4 3 4 3 3 3 3 9 5 6 4 4 6 5 5 4 4 4 3 3 5 3 5 3 6 5 4 5 4
12 14 12 12 11 11 5 5 5 5 4 4 4 5 4 3 4 4 3 4 4 4 6 4 3 6 6 7 6 6 5 4 2 2 3 1 6 5 5 5 4 3 3
13 14 13 12 13 12 9 7 7 7 7 6 5 6 5 4 5 3 4 4 4 3 4 5 4 5 5 6 5 5 5 5 3 1 2 3 6 6 7 6 5 3 2
15 16 14 16 14 12 12 11 10 8 8 6 7 8 9 6 5 5 5 5 5 4 5 4 4 5 4 2 3 4 4 4 2 2 2 2 6 6 6 5 4 1 0
15 16 18 18 15 15 15 11 10 9 9 8 8 9 10 9 7 7 6 5 6 4 5 4 5 2 2 0 1 2 3 4 3 2 3 2 4 3 3 6 4 2 3
6 10 9 11 14 15 14 10 8 8 9 9 9 8 12 11 11 8 7 5 5 4 4 3 3 1 2 1 0 2 3 4 2 3 3 4 3 2 3 8 5 8 10
4 4 6 7 5 6 6 3 4 4 5 5 6 8 11 13 12 10 7 6 6 4 4 3 2 2 2 1 1 3 4 3 3 3 4 5 4 4 4 7 9 9 10
24 20 13 2 4 4 3 3 3 2 4 3 4 5 6 7 10 9 7 6 5 3 3 2 3 2 2 2 3 4 4 3 3 3 3 3 5 5 5 4 3 4 9
27 26 21 18 11 4 4 3 3 4 2 2 2 4 5 5 6 7 6 5 5 5 5 5 3 4 2 2 3 2 4 5 5 4 3 3 4 3 4 3 2 1 3
22 24 26 24 21 15 2 3 4 3 3 3 3 4 5 5 6 6 6 5 5 3 6 6 4 3 2 3 3 2 1 4 4 4 3 3 4 2 3 3 4 3 3
23 25 23 22 22 21 19 9 3 3 3 2 3 2 1 5 6 7 7 6 6 5 6 5 7 7 5 3 3 5 2 4 1 2 3 3 3 3 3 2 3 5 4
21 20 20 21 22 21 22 16 14 7 2 1 3 3 4 5 5 7 9 9 8 8 9 7 6 5 6 6 2 3 2 4 4 2 2 3 3 5 4 2 3 4 4
21 19 19 20 19 19 21 18 13 14 6 5 3 6 8 8 13 8 11 12 12 9 11 12 9 7 5 5 4 3 2 2 2 4 3 2 3 3 3 3 4 3 2
20 20 19 20 18 20 18 17 17 16 16 10 9 9 10 10 11 9 10 10 12 12 13 12 12 11 10 5 4 4 5 5 4 4 4 2 2 2 2 3 2 1 2
Wind_Direction
187 180 163 157 150 136 131 130 126 124 121 116 114 112 111 111 111 112 112 111 109 108 105 103 102 98 97 98 99 97 94 91 91 90 89 79 123 99 115 113 107 101 100
151 174 170 154 149 142 141 137 133 131 127 120 117 116 116 116 115 115 115 115 113 112 109 108 105 102 99 99 103 103 105 109 106 103 101 92 106 109 132 125 125 120 102
148 163 167 155 148 145 146 145 140 138 135 127 124 124 124 123 123 122 121 120 117 115 113 111 108 107 105 104 104 104 113 133 161 165 145 110 116 131 138 142 131 134 129
142 153 158 149 148 148 149 141 146 144 141 136 133 132 131 132 131 128 126 125 123 121 120 118 118 112 100 98 98 97 99 122 256 249 227 204 215 172 167 164 153 148 143
152 147 158 146 156 154 145 149 153 150 147 144 142 138 137 138 136 134 133 131 130 135 143 147 140 107 71 61 60 37 6 337 302 305 264 233 205 199 188 185 174 177 165
133 149 153 147 152 155 153 158 157 157 153 150 148 145 147 147 144 144 139 143 151 170 208 222 261 328 319 310 329 354 333 322 327 290 272 259 195 202 200 197 191 196 187
134 149 151 154 160 160 163 163 163 166 161 158 157 154 155 156 156 159 154 165 183 207 235 249 270 288 286 292 294 298 307 303 303 300 313 348 185 193 193 201 197 194 189
148 148 162 161 164 164 167 168 170 172 168 165 164 162 161 163 167 177 176 191 211 228 245 257 263 269 272 280 287 303 306 301 309 302 313 304 204 197 200 198 207 200 194
148 149 153 157 172 169 170 174 176 177 176 172 169 171 171 176 184 197 204 212 231 243 258 272 280 280 283 288 307 303 291 288 266 255 278 255 208 209 202 196 203 209 213
149 154 145 146 156 162 173 181 183 182 182 178 178 180 184 190 202 213 228 234 242 254 266 277 284 285 287 295 298 299 296 289 273 246 237 233 233 229 201 207 201 207 210
154 181 158 157 160 161 170 189 190 189 189 188 189 190 195 202 226 233 242 249 261 267 271 277 283 291 299 303 302 289 302 275 270 239 213 245 238 231 220 221 210 210 211
196 196 187 171 172 166 184 196 172 195 184 183 188 196 194 215 232 245 255 265 268 274 276 272 277 287 299 292 292 304 245 272 272 285 218 219 214 204 212 220 209 231 215
191 184 191 183 177 179 193 169 174 187 175 194 194 195 207 216 234 248 260 264 268 268 271 270 279 268 271 276 282 282 292 315 257 272 290 270 190 178 176 183 197 240 249
186 194 192 193 183 184 179 184 185 186 189 198 199 198 200 215 234 240 242 249 246 248 264 256 262 268 263 261 261 276 294 273 290 280 315 268 161 167 175 161 192 161 83
191 197 196 194 192 186 184 183 184 194 198 196 191 199 195 209 229 236 245 250 249 233 247 264 253 271 274 271 249 251 256 252 260 238 296 184 168 183 153 161 171 108 81
195 197 189 197 200 189 197 190 192 193 196 190 201 206 200 201 214 225 243 243 257 232 245 241 252 262 274 284 305 293 270 202 190 225 248 206 167 169 173 158 135 94 124
200 192 194 194 195 194 198 199 198 195 188 198 203 201 199 199 208 218 228 246 251 244 258 261 259 271 273 279 100 53 6 14 167 204 189 125 133 166 137 130 91 247 190
267 302 232 206 200 201 201 197 207 201 193 204 205 195 201 201 204 210 224 223 229 231 227 229 227 231 224 210 343 24 357 337 277 170 135 111 115 99 130 111 99 98 104
341 222 224 254 246 273 307 307 291 295 255 235 218 213 204 200 202 207 215 213 210 202 215 197 189 172 232 209 191 33 351 344 356 75 103 113 117 126 135 127 119 117 115
20 18 3 173 256 229 238 223 203 231 241 257 257 259 261 242 222 201 210 197 198 192 222 178 167 180 196 190 79 42 5 2 80 84 102 112 113 128 126 122 124 132 126
22 23 14 14 344 194 195 210 292 258 237 241 268 295 287 273 268 268 258 210 180 188 194 190 165 177 207 164 100 21 18 26 42 36 25 90 96 102 122 122 166 134 106
13 16 17 15 8 357 288 217 206 186 205 172 174 186 182 221 238 248 235 235 245 186 190 189 187 154 172 192 134 82 63 349 3 14 11 52 69 60 77 148 196 137 100
15 13 12 5 9 14 1 342 318 356 351 46 20 28 351 221 225 229 226 215 198 223 233 217 177 172 176 197 223 146 131 202 146 342 357 16 30 35 8 312 211 141 115
10 6 6 2 7 4 9 8 5 343 350 6 323 319 310 322 220 225 230 223 198 202 205 204 214 182 148 173 172 179 122 155 175 170 309 316 348 25 7 345 122 128 121
2 2 355 355 356 2 360 360 0 343 309 287 279 282 296 299 297 241 212 229 222 211 211 191 186 214 173 156 161 160 132 88 106 136 180 283 357 0 7 28 105 119 94
353 357 353 355 353 355 354 348 347 347 336 333 323 302 274 279 281 282 259 238 231 221 206 197 188 203 188 155 158 172 164 161 184 153 124 151 188 319 339 356 79 55 3